User: anonymous   Login
Location: Caltech
(34.1382°N, 118.1253°W)
Time: 18:13:48
(UTC-07:00)
Language:

COSMOS 2428 - Orbit

View from above orbital plane
View from above orbital plane
View from above satellite
View from above satellite

Ground track
Ground track

The orbit data is extracted from the following two-line orbital elements,

1 31792U 07029A   16242.60188077 -.00000325  00000-0 -15043-3 0  9990
2 31792  70.9303 304.2330 0010202 346.3933  13.6911 14.12326415472909
Epoch (UTC): 29 August 2016 14:26:42
Eccentricity: 0.0010202
inclination: 70.9303°
perigee height: 844 km
apogee height: 859 km
right ascension of ascending node: 304.2330°
argument of perigee: 346.3933°
revolutions per day: 14.12326415
mean anomaly at epoch: 13.6911°
orbit number at epoch: 47290

The dashed part of the orbit path shows where the satellite is in the earth's shadow,  

DLR